Saint Paul, MN (55119)

12:02 AM CDT on August 02, 2015 (GMT -0500)
South Maplewood | | Change Station
CLOSE
Current Station
Personal Weather Station
Location: Maplewood, MN
Elevation: 1020 ft
Nearby Weather Stations

Elev 1020 ft 44.92 °N, 92.99 °W | Updated 2 seconds ago

Scattered Clouds
Scattered Clouds
74.1 °F
Feels Like 75 °F
N
0.0
Wind Variable Wind from South
Gusts 1.3 mph

Today
High -- | Low -- °F
--% Chance of Precip.
Yesterday
High -- | Low -- °F
Precip. -- in
5:58 AM 8:37 PM
Waning Gibbous, 96% visible
Pressure 29.75 in
Visibility 10.0 miles
Clouds Scattered Clouds 12000 ft
Heat Index 75 °F
Dew Point 67 °F
Humidity 78%
Rainfall 0.00 in
Snow Depth Not available.
UV 0 out of 12
Pollen 7.40 out of 12
Air Quality Not available.
Flu Activity Not available.
METAR KSTP 020453Z AUTO 23009KT 10SM SCT120 24/19 A2977 RMK AO2 RAB21E32 SLP074 P0000 T02440194

More Conditions Fewer Conditions

Pressure 29.75 in
Visibility 10.0 miles
Clouds Scattered Clouds 12000 ft
Heat Index 75 °F
Dew Point 67 °F
Humidity 78%
Rainfall 0.00 in
Snow Depth Not available.
UV 0 out of 12
Pollen 7.40 out of 12
Air Quality Not available.
Flu Activity Not available.
METAR KSTP 020453Z AUTO 23009KT 10SM SCT120 24/19 A2977 RMK AO2 RAB21E32 SLP074 P0000 T02440194

More Conditions Fewer Conditions

10-Day Weather Forecast

×

Almanac

Astronomy

Aug. 02, 2015 Rise Set
Actual Time
Civil Twilight
Nautical Twilight
Astronomical Twilight
Moon
Length of Visible Light
Length of Day
Tomorrow will be .
, % of the Moon is Illuminated

Today's Extremes

State Highs State Lows

Community

WunderPhotos

Upload Photos

1,843,190 photos uploaded!

WunderBlogs® & News

Nearby

Air Quality

  Air Quality AQ Index Pollutant
Not available.

Snow Depth

Station Depth Elevation

Earthquake Activity

City Distance Mag. Time & Date
Minimum magnitude displayed is 2.5.

Coastal Water Temperatures

Place Temperature

Stations

Nearby Weather Stations

Station Location Temp. Windchill Dew Point Humidity Wind Precip. Elev Updated Type